User: anonymous   Login
Location: Caltech
(34.1382°N, 118.1253°W)
Time: 19:54:21
(UTC-08:00)
Language:

SL-08 R/B - Orbit

View from above orbital plane
View from above orbital plane
View from above satellite
View from above satellite

Ground track
Ground track

The orbit data is extracted from the following two-line orbital elements,

1 27561U 02054C   16044.88069317  .00000284  00000-0  75031-4 0  9993
2 27561  98.1870 180.0985 0045159 248.6874 110.9499 14.55490913701103
Epoch (UTC): 13 February 2016 21:08:11
Eccentricity: 0.0045159
inclination: 98.1870°
perigee height: 676 km
apogee height: 740 km
right ascension of ascending node: 180.0985°
argument of perigee: 248.6874°
revolutions per day: 14.55490913
mean anomaly at epoch: 110.9499°
orbit number at epoch: 70110

The dashed part of the orbit path shows where the satellite is in the earth's shadow,  

DLR